Time,TemperatureF,DewpointF,PressureIn,WindDirection,WindDirectionDegrees,WindSpeedMPH,WindSpeedGustMPH,Humidity,HourlyPrecipIn,Conditions,Clouds,dailyrainin,SoftwareType,DateUTC
2013-10-08 00:04:00,62.9,59.0,29.98,NNW,346,14.0,-999.0,86,-99.99,,,0.00,weatherlink.com 1.10,2013-10-08 04:04:00,
2013-10-08 00:19:00,62.8,58.0,29.99,NNW,347,11.0,-999.0,83,-99.99,,,0.00,weatherlink.com 1.10,2013-10-08 04:19:00,
2013-10-08 00:34:00,62.5,57.0,30.00,NNW,340,10.0,-999.0,82,-99.99,,,0.00,weatherlink.com 1.10,2013-10-08 04:34:00,
2013-10-08 00:49:00,62.3,56.0,30.00,North,355,10.0,-999.0,81,-99.99,,,0.00,weatherlink.com 1.10,2013-10-08 04:49:00,
2013-10-08 01:05:00,61.9,55.0,30.01,North,352,7.0,-999.0,78,-99.99,,,0.00,weatherlink.com 1.10,2013-10-08 05:05:00,
2013-10-08 01:20:00,61.7,55.0,30.01,NNW,335,12.0,-999.0,79,-99.99,,,0.00,weatherlink.com 1.10,2013-10-08 05:20:00,
2013-10-08 01:35:00,61.1,55.0,30.01,NNW,334,6.0,-999.0,79,-99.99,,,0.00,weatherlink.com 1.10,2013-10-08 05:35:00,
2013-10-08 01:50:00,60.9,55.0,30.02,NW,326,5.0,-999.0,82,-99.99,,,0.00,weatherlink.com 1.10,2013-10-08 05:50:00,
2013-10-08 02:05:00,60.3,55.0,30.02,NNW,330,6.0,-999.0,82,-99.99,,,0.00,weatherlink.com 1.10,2013-10-08 06:05:00,
2013-10-08 02:20:00,60.2,54.0,30.02,NNW,345,9.0,-999.0,80,-99.99,,,0.00,weatherlink.com 1.10,2013-10-08 06:20:00,
2013-10-08 02:35:00,59.7,53.0,30.02,NNW,333,11.0,-999.0,78,-99.99,,,0.00,weatherlink.com 1.10,2013-10-08 06:35:00,
2013-10-08 02:50:00,59.2,52.0,30.03,NNW,339,11.0,-999.0,78,-99.99,,,0.00,weatherlink.com 1.10,2013-10-08 06:50:00,
2013-10-08 03:05:00,59.1,51.0,30.02,NNW,342,14.0,-999.0,75,-99.99,,,0.00,weatherlink.com 1.10,2013-10-08 07:05:00,
2013-10-08 03:20:00,58.4,52.0,30.03,NW,324,11.0,-999.0,79,-99.99,,,0.00,weatherlink.com 1.10,2013-10-08 07:20:00,
2013-10-08 03:36:00,57.7,51.0,30.04,NW,326,10.0,-999.0,79,-99.99,,,0.00,weatherlink.com 1.10,2013-10-08 07:36:00,
2013-10-08 03:51:00,57.2,51.0,30.04,NW,324,13.0,-999.0,79,-99.99,,,0.00,weatherlink.com 1.10,2013-10-08 07:51:00,
2013-10-08 04:06:00,57.0,50.0,30.04,NW,315,13.0,-999.0,78,-99.99,,,0.00,weatherlink.com 1.10,2013-10-08 08:06:00,
2013-10-08 04:21:00,56.8,50.0,30.05,NNW,347,13.0,-999.0,77,-99.99,,,0.00,weatherlink.com 1.10,2013-10-08 08:21:00,
2013-10-08 04:36:00,56.8,50.0,30.05,NNW,342,10.0,-999.0,77,-99.99,,,0.00,weatherlink.com 1.10,2013-10-08 08:36:00,
2013-10-08 04:51:00,56.4,49.0,30.06,NW,322,12.0,-999.0,77,-99.99,,,0.00,weatherlink.com 1.10,2013-10-08 08:51:00,
2013-10-08 05:06:00,56.1,50.0,30.06,NNW,348,11.0,-999.0,79,-99.99,,,0.00,weatherlink.com 1.10,2013-10-08 09:06:00,
2013-10-08 05:21:00,55.7,49.0,30.06,NNW,339,11.0,-999.0,79,-99.99,,,0.00,weatherlink.com 1.10,2013-10-08 09:21:00,
2013-10-08 05:36:00,55.4,49.0,30.07,North,349,14.0,-999.0,80,-99.99,,,0.00,weatherlink.com 1.10,2013-10-08 09:36:00,
2013-10-08 05:51:00,55.6,49.0,30.07,North,354,10.0,-999.0,78,-99.99,,,0.00,weatherlink.com 1.10,2013-10-08 09:51:00,
2013-10-08 06:06:00,55.5,49.0,30.08,NW,311,12.0,-999.0,79,-99.99,,,0.00,weatherlink.com 1.10,2013-10-08 10:06:00,
2013-10-08 06:22:00,55.5,49.0,30.09,NNW,346,5.0,-999.0,79,-99.99,,,0.00,weatherlink.com 1.10,2013-10-08 10:22:00,
2013-10-08 06:37:00,55.5,49.0,30.09,NNW,347,6.0,-999.0,79,-99.99,,,0.00,weatherlink.com 1.10,2013-10-08 10:37:00,
2013-10-08 06:52:00,55.5,49.0,30.11,NNW,333,9.0,-999.0,78,-99.99,,,0.00,weatherlink.com 1.10,2013-10-08 10:52:00,
2013-10-08 07:07:00,55.7,49.0,30.11,North,354,10.0,-999.0,78,-99.99,,,0.00,weatherlink.com 1.10,2013-10-08 11:07:00,
2013-10-08 07:22:00,55.7,49.0,30.11,North,1,8.0,-999.0,78,-99.99,,,0.00,weatherlink.com 1.10,2013-10-08 11:22:00,
2013-10-08 07:37:00,55.4,49.0,30.12,North,349,10.0,-999.0,78,-99.99,,,0.00,weatherlink.com 1.10,2013-10-08 11:37:00,
2013-10-08 07:52:00,55.3,49.0,30.13,North,0,12.0,-999.0,79,-99.99,,,0.00,weatherlink.com 1.10,2013-10-08 11:52:00,
2013-10-08 08:07:00,55.5,49.0,30.14,North,1,17.0,-999.0,79,-99.99,,,0.00,weatherlink.com 1.10,2013-10-08 12:07:00,
2013-10-08 08:22:00,55.7,49.0,30.15,North,1,12.0,-999.0,78,-99.99,,,0.00,weatherlink.com 1.10,2013-10-08 12:22:00,
2013-10-08 08:37:00,55.9,50.0,30.15,North,359,9.0,-999.0,79,-99.99,,,0.00,weatherlink.com 1.10,2013-10-08 12:37:00,
2013-10-08 08:52:00,56.1,49.0,30.15,North,359,17.0,-999.0,77,-99.99,,,0.00,weatherlink.com 1.10,2013-10-08 12:52:00,
2013-10-08 09:07:00,56.5,49.0,30.15,NNE,30,12.0,-999.0,75,-99.99,,,0.00,weatherlink.com 1.10,2013-10-08 13:07:00,
2013-10-08 09:23:00,57.0,49.0,30.16,NNE,25,19.0,-999.0,74,-99.99,,,0.00,weatherlink.com 1.10,2013-10-08 13:23:00,
2013-10-08 09:38:00,57.6,49.0,30.16,NNE,22,17.0,-999.0,73,-99.99,,,0.00,weatherlink.com 1.10,2013-10-08 13:38:00,
2013-10-08 09:53:00,58.0,49.0,30.16,NE,35,17.0,-999.0,71,-99.99,,,0.00,weatherlink.com 1.10,2013-10-08 13:53:00,
2013-10-08 10:08:00,58.4,49.0,30.16,NNE,13,24.0,-999.0,70,-99.99,,,0.00,weatherlink.com 1.10,2013-10-08 14:08:00,
2013-10-08 10:23:00,59.0,49.0,30.16,ENE,68,11.0,-999.0,69,-99.99,,,0.00,weatherlink.com 1.10,2013-10-08 14:23:00,
2013-10-08 10:38:00,59.7,49.0,30.17,NE,34,8.0,-999.0,69,-99.99,,,0.00,weatherlink.com 1.10,2013-10-08 14:38:00,
2013-10-08 10:53:00,60.2,50.0,30.17,NNE,26,13.0,-999.0,68,-99.99,,,0.00,weatherlink.com 1.10,2013-10-08 14:53:00,
2013-10-08 11:08:00,60.7,50.0,30.17,NNE,17,14.0,-999.0,68,-99.99,,,0.00,weatherlink.com 1.10,2013-10-08 15:08:00,
2013-10-08 11:23:00,61.3,51.0,30.17,NE,40,15.0,-999.0,68,-99.99,,,0.00,weatherlink.com 1.10,2013-10-08 15:23:00,
2013-10-08 11:38:00,61.9,51.0,30.18,North,8,14.0,-999.0,67,-99.99,,,0.00,weatherlink.com 1.10,2013-10-08 15:38:00,
2013-10-08 11:53:00,62.7,52.0,30.17,NE,34,6.0,-999.0,68,-99.99,,,0.00,weatherlink.com 1.10,2013-10-08 15:53:00,
2013-10-08 12:08:00,63.1,52.0,30.17,NNE,33,18.0,-999.0,67,-99.99,,,0.00,weatherlink.com 1.10,2013-10-08 16:08:00,
2013-10-08 12:24:00,63.6,52.0,30.18,NNE,14,15.0,-999.0,67,-99.99,,,0.00,weatherlink.com 1.10,2013-10-08 16:24:00,
2013-10-08 12:39:00,64.0,53.0,30.18,NNE,19,14.0,-999.0,67,-99.99,,,0.00,weatherlink.com 1.10,2013-10-08 16:39:00,
2013-10-08 12:54:00,63.9,52.0,30.18,NE,39,19.0,-999.0,66,-99.99,,,0.00,weatherlink.com 1.10,2013-10-08 16:54:00,
2013-10-08 13:09:00,64.1,53.0,30.17,NE,34,14.0,-999.0,68,-99.99,,,0.00,weatherlink.com 1.10,2013-10-08 17:09:00,
2013-10-08 13:24:00,64.4,53.0,30.17,ENE,68,11.0,-999.0,67,-99.99,,,0.00,weatherlink.com 1.10,2013-10-08 17:24:00,
2013-10-08 13:39:00,64.3,54.0,30.18,NNE,30,12.0,-999.0,69,-99.99,,,0.00,weatherlink.com 1.10,2013-10-08 17:39:00,
2013-10-08 14:09:00,64.0,53.0,30.17,NE,39,10.0,-999.0,68,-99.99,,,0.00,weatherlink.com 1.10,2013-10-08 18:09:00,
2013-10-08 14:24:00,64.7,54.0,30.16,NE,36,14.0,-999.0,68,-99.99,,,0.00,weatherlink.com 1.10,2013-10-08 18:24:00,
2013-10-08 14:39:00,64.6,53.0,30.17,NNE,30,7.0,-999.0,67,-99.99,,,0.00,weatherlink.com 1.10,2013-10-08 18:39:00,
2013-10-08 14:54:00,64.3,53.0,30.17,NE,51,6.0,-999.0,68,-99.99,,,0.00,weatherlink.com 1.10,2013-10-08 18:54:00,
2013-10-08 15:09:00,64.4,53.0,30.17,North,359,8.0,-999.0,67,-99.99,,,0.00,weatherlink.com 1.10,2013-10-08 19:09:00,
2013-10-08 15:25:00,64.0,52.0,30.16,NE,41,8.0,-999.0,66,-99.99,,,0.00,weatherlink.com 1.10,2013-10-08 19:25:00,
2013-10-08 15:40:00,64.4,52.0,30.16,NNE,13,6.0,-999.0,65,-99.99,,,0.00,weatherlink.com 1.10,2013-10-08 19:40:00,
2013-10-08 15:55:00,64.3,52.0,30.16,NNE,21,10.0,-999.0,64,-99.99,,,0.00,weatherlink.com 1.10,2013-10-08 19:55:00,
2013-10-08 16:10:00,64.2,52.0,30.16,NNE,23,12.0,-999.0,64,-99.99,,,0.00,weatherlink.com 1.10,2013-10-08 20:10:00,
2013-10-08 16:40:00,64.2,50.0,30.16,North,4,10.0,-999.0,61,-99.99,,,0.00,weatherlink.com 1.10,2013-10-08 20:40:00,
2013-10-08 16:55:00,64.3,50.0,30.17,NNE,16,7.0,-999.0,61,-99.99,,,0.00,weatherlink.com 1.10,2013-10-08 20:55:00,
2013-10-08 17:10:00,63.6,51.0,30.18,NNE,18,7.0,-999.0,63,-99.99,,,0.00,weatherlink.com 1.10,2013-10-08 21:10:00,
2013-10-08 17:25:00,63.4,51.0,30.18,NNE,24,6.0,-999.0,65,-99.99,,,0.00,weatherlink.com 1.10,2013-10-08 21:25:00,
2013-10-08 17:40:00,63.3,52.0,30.18,North,9,11.0,-999.0,66,-99.99,,,0.00,weatherlink.com 1.10,2013-10-08 21:40:00,
2013-10-08 17:56:00,63.1,52.0,30.18,NNE,25,3.0,-999.0,68,-99.99,,,0.00,weatherlink.com 1.10,2013-10-08 21:56:00,
2013-10-08 18:10:00,62.6,52.0,30.19,NNE,12,4.0,-999.0,69,-99.99,,,0.00,weatherlink.com 1.10,2013-10-08 22:10:00,
2013-10-08 18:25:00,62.3,52.0,30.19,North,9,6.0,-999.0,70,-99.99,,,0.00,weatherlink.com 1.10,2013-10-08 22:25:00,
2013-10-08 18:41:00,62.0,52.0,30.20,NNE,15,4.0,-999.0,71,-99.99,,,0.00,weatherlink.com 1.10,2013-10-08 22:41:00,
2013-10-08 18:56:00,61.8,53.0,30.19,NNE,13,6.0,-999.0,72,-99.99,,,0.00,weatherlink.com 1.10,2013-10-08 22:56:00,
2013-10-08 19:11:00,60.9,53.0,30.20,NNE,22,5.0,-999.0,74,-99.99,,,0.00,weatherlink.com 1.10,2013-10-08 23:11:00,
2013-10-08 19:26:00,60.8,52.0,30.20,NNE,14,4.0,-999.0,73,-99.99,,,0.00,weatherlink.com 1.10,2013-10-08 23:26:00,
2013-10-08 19:41:00,60.6,52.0,30.20,NNE,16,4.0,-999.0,73,-99.99,,,0.00,weatherlink.com 1.10,2013-10-08 23:41:00,
2013-10-08 19:56:00,60.4,52.0,30.21,NNE,18,7.0,-999.0,74,-99.99,,,0.00,weatherlink.com 1.10,2013-10-08 23:56:00,
2013-10-08 20:11:00,60.4,52.0,30.20,NNE,18,3.0,-999.0,75,-99.99,,,0.00,weatherlink.com 1.10,2013-10-09 00:11:00,
2013-10-08 20:26:00,60.0,52.0,30.21,North,7,7.0,-999.0,76,-99.99,,,0.00,weatherlink.com 1.10,2013-10-09 00:26:00,
2013-10-08 20:41:00,60.1,53.0,30.21,NNE,30,6.0,-999.0,76,-99.99,,,0.00,weatherlink.com 1.10,2013-10-09 00:41:00,
2013-10-08 20:56:00,60.3,52.0,30.21,NNE,18,9.0,-999.0,75,-99.99,,,0.00,weatherlink.com 1.10,2013-10-09 00:56:00,
2013-10-08 21:11:00,60.8,53.0,30.21,North,11,7.0,-999.0,75,-99.99,,,0.00,weatherlink.com 1.10,2013-10-09 01:11:00,
2013-10-08 21:26:00,60.6,53.0,30.21,NNE,29,10.0,-999.0,76,-99.99,,,0.00,weatherlink.com 1.10,2013-10-09 01:26:00,
2013-10-08 21:41:00,60.1,53.0,30.21,North,5,6.0,-999.0,77,-99.99,,,0.00,weatherlink.com 1.10,2013-10-09 01:41:00,
2013-10-08 21:57:00,59.9,53.0,30.21,NNE,32,7.0,-999.0,77,-99.99,,,0.00,weatherlink.com 1.10,2013-10-09 01:57:00,
2013-10-08 22:12:00,60.0,52.0,30.21,North,11,13.0,-999.0,75,-99.99,,,0.00,weatherlink.com 1.10,2013-10-09 02:12:00,
2013-10-08 22:27:00,60.1,52.0,30.21,NNE,23,14.0,-999.0,75,-99.99,,,0.00,weatherlink.com 1.10,2013-10-09 02:27:00,
2013-10-08 22:42:00,60.2,52.0,30.21,NNE,30,8.0,-999.0,75,-99.99,,,0.00,weatherlink.com 1.10,2013-10-09 02:42:00,
2013-10-08 22:57:00,60.1,52.0,30.21,North,11,10.0,-999.0,75,-99.99,,,0.00,weatherlink.com 1.10,2013-10-09 02:57:00,
2013-10-08 23:12:00,60.0,52.0,30.22,NNE,13,10.0,-999.0,76,-99.99,,,0.00,weatherlink.com 1.10,2013-10-09 03:12:00,
2013-10-08 23:27:00,59.9,52.0,30.21,NNE,24,12.0,-999.0,76,-99.99,,,0.00,weatherlink.com 1.10,2013-10-09 03:27:00,
2013-10-08 23:42:00,61.5,52.0,30.21,NE,47,11.0,-999.0,71,-99.99,,,0.00,weatherlink.com 1.10,2013-10-09 03:42:00,
2013-10-08 23:57:00,63.7,51.0,30.21,ENE,67,15.0,-999.0,64,-99.99,,,0.00,weatherlink.com 1.10,2013-10-09 03:57:00,